Regional Weather Roundup
Issued by NWS

Home | Current Version | Previous Version | Text Only | Print | Product List | Glossary Off
Versions: 1 2 3 4 5 6 7 8 9 10 11 12 13 14 15 16 17 18 19 20 21 22 23 24 25 26 27 28 29 30 31 32 33 34 35 36 37 38 39 40 41 42 43 44 45 46 47 48 49 50

000
ASUS43 KMKX 271711
RWRWI

WISCONSIN REGIONAL WEATHER ROUNDUP
NATIONAL WEATHER SERVICE MILWAUKEE/SULLIVAN WI
1200 PM CDT MON APR 27 2015

NOTE: "FAIR" INDICATES FEW OR NO CLOUDS BELOW 12,000 FEET WITH NO
SIGNIFICANT WEATHER AND/OR OBSTRUCTIONS TO VISIBILITY.

WIZ001-002-006>008-014>016-023>028-271800-
NORTHWEST WISCONSIN

CITY           SKY/WX    TMP DP  RH WIND       PRES   REMARKS
SUPERIOR ARPT  SUNNY     56  32  39 E7        30.24S
ASHLAND        SUNNY     57  32  38 N9        30.23F
HAYWARD        SUNNY     60  27  28 NW8       30.21S
SIREN          SUNNY     61  26  26 NE7       30.23S
CUMBERLAND     SUNNY     57  28  33 N10G18    30.22F
RICE LAKE      SUNNY     59  29  31 N10G16    30.23S
CHETEK         SUNNY     59  33  36 NW6       30.22S
LADYSMITH      SUNNY     59  29  32 N6        30.21S
EAU CLAIRE     SUNNY     61  30  31 NW10G20   30.20F
MENOMONIE      SUNNY     60  28  29 NW15      30.22F
NEW RICHMOND   SUNNY     61  25  25 NW9       30.23F
OSCEOLA        SUNNY     61  28  28 NW10G20   30.26F
$$

WIZ003>005-009-010-017-018-271800-
NORTH CENTRAL WISCONSIN

CITY           SKY/WX    TMP DP  RH WIND       PRES   REMARKS
MANITOWISH WTR SUNNY     55  30  38 NW12G18   30.17F
ARBOR VITAE    SUNNY     58  31  35 N15G21    30.15F
WOODRUFF       SUNNY     58  31  35 N15G21    30.15F
RHINELANDER    SUNNY     57  29  34 N13G18    30.15S
EAGLE RIVER    SUNNY     56  25  30 N13       30.14S
LAND O LAKES   SUNNY     55  26  33 N12G20    30.16S
PHILLIPS       SUNNY     56  30  36 N10G16    30.17S
TOMAHAWK       SUNNY     56  29  34 NW10      30.16S
MEDFORD        SUNNY     58  32  37 N10G16    30.17S
MERRILL        SUNNY     59  31  34 NE9G18    30.14F
$$

WIZ029-030-035-036-043>047-271800-
CENTRAL WISCONSIN

CITY           SKY/WX    TMP DP  RH WIND       PRES   REMARKS
WAUSAU         SUNNY     58  29  33 VRB5G21   30.14R
MOSINEE        SUNNY     57  30  35 NW5       30.16S
MARSHFIELD     SUNNY     59  32  36 NW14      30.17S
STEVENS POINT  SUNNY     57  29  35 N13G20    30.15S
WAUPACA        SUNNY     62  29  29 N6        30.15S
WAUTOMA        SUNNY     60  28  29 N9        30.15S
WISC RAPIDS    SUNNY     60  29  30 N12G21    30.17F
CAMP DOUGLAS   MOSUNNY   61  32  33 NW10G18   30.15F
$$

WIZ011>013-019>022-031-037>040-048>050-271800-
NORTHEAST WISCONSIN

CITY           SKY/WX    TMP DP  RH WIND       PRES   REMARKS
ANTIGO         SUNNY     56  32  39 N12       30.14R
SHAWANO        MOSUNNY   60  31  34 E6        30.13F
OCONTO         SUNNY     50  35  55 SE12      30.13R
STURGEON BAY   SUNNY     50  34  53 N13       30.15S
GREEN BAY      MOSUNNY   54  35  48 NE5       30.14S
MANITOWOC      SUNNY     51  35  54 NE10      30.15R
APPLETON       MOSUNNY   55  30  38 N14       30.14S
CLINTONVILLE   SUNNY     57  28  33 NW6       30.13S
OSHKOSH        SUNNY     55  36  48 NE9       30.14S
$$

WIZ032>034-041-042-053>061-271800-
SOUTHWEST WISCONSIN

CITY           SKY/WX    TMP DP  RH WIND       PRES   REMARKS
LA CROSSE      SUNNY     59  32  36 NW10      30.19F
SPARTA         SUNNY     58  28  32 N5        30.18F
VIROQUA        SUNNY     56  31  38 N7        30.18F
BOSCOBEL       SUNNY     61  31  32 VRB5      30.18F
PRAIRIE DU CHI SUNNY     58  30  35 NW3       30.18F
PLATTEVILLE    SUNNY     57  33  39 NW14      30.16F
$$

WIZ056-057-062-063-064-067-068-271800-
SOUTH CENTRAL WISCONSIN

CITY           SKY/WX    TMP DP  RH WIND       PRES   REMARKS
REEDSBURG      SUNNY     58  33  40 NW12G20   30.15F
BARABOO/DELLS  SUNNY     58  29  33 N9        30.14F
LONE ROCK      SUNNY     60  31  33 NE8       30.16F
MINERAL POINT  SUNNY     59  30  33 N10       30.16F
MADISON        MOSUNNY   58  33  39 N13G18    30.14F
MIDDLETON      SUNNY     59  29  31 N14       30.14F
WATERTOWN      SUNNY     56  34  43 N12       30.12F
MONROE         SUNNY     55  34  44 N16G22    30.13F
JANESVILLE     MOSUNNY   57  28  33 N13       30.13F
$$

WIZ051-052-058>065-066-070>072-271800-
SOUTHEAST WISCONSIN

CITY           SKY/WX    TMP DP  RH WIND       PRES   REMARKS
MILWAUKEE      MOSUNNY   51  34  52 NE14      30.14S
WAUKESHA       MOSUNNY   54  34  47 N10G17    30.14S
MILWAUKEE/TIMM MOSUNNY   54  30  40 NE8       30.13S
RACINE         SUNNY     51  34  52 NE15      30.15F
BURLINGTON     MOSUNNY   53  33  46 NW14      30.12F
KENOSHA        SUNNY     55  36  48 NE10      30.12F
FOND DU LAC    SUNNY     55  34  45 NE14      30.15S
SHEBOYGAN      MOSUNNY   52  36  54 NE14      30.14R
WEST BEND      MOSUNNY   54  32  43 N13G20    30.12S
JUNEAU         SUNNY     55  33  43 NW9G17    30.14F
$$

LSZ147-162-271800-
LAKE SUPERIOR

STATION/POSITION TIME  TEMP    WIND        PRES    WAVE
                       AIR SEA DIR/SP/G            HT/PER
                 (UTC) (F)     (DEG/KT/KT) (MB)    (FT/S)
W MID LAKE BUOY  1650   36 35  190/  4/  6 1025.2F   0
DEVILS ISLAND    1700   45     110/  3/  4 1024.4F
PORT WING        1600   39     300/  6/  6 1024.4
SAXON HARBOR     1600   42        CALM     1024.0
$$

LMZ867-665-643>646-271800-
LAKE MICHIGAN

STATION/POSITION TIME  TEMP    WIND        PRES    WAVE
                       AIR SEA DIR/SP/G            HT/PER
                 (UTC) (F)     (DEG/KT/KT) (MB)    (FT/S)
CHAMBERS ISLAND  1600   44      30/ 10/ 14 1020.7F
NORTHPORT PIER   1600   42     350/ 12/ 13 1020.7R
SISTER BAY       1517   45     360/ 11/ 14   N/A
KEWAUNEE LAKESHO 1600   44      40/  8/ 11 1019.4S
SHEBOYGAN LAKESH 1700   42      40/ 14/ 16 1021.4R
PORT WASHINGTON  1600   47      50/  8/ 12 1021.0R
MILWAUKEE LAKESH 1600   43      40/  6/  7   N/A
KENOSHA   LAKESH 1700   44      40/ 13/ 14 1020.3F
$$

TC  - TEMPERATURE IN CELSIUS
VSB - VISIBILITY IN STATUTE MILES
WCI - WIND CHILL INDEX
HX  - HEAT INDEX



USA.gov is the U.S. government's official web portal to all federal, state and local government web resources and services.